Location: Blankensee
(53.5126°N, 14.3055°E)
Time: 18:45:37
(UTC+00:00)

GEOS 3 Rocket - Pass Details

Date: 08 August 2020
Orbit: 770 x 849 km, 115.0° (Epoch: 19 September)

Event Time Altitude Azimuth Distance (km) Brightness Sun altitude
Rises 01:46:25 0° 46° (NE) 3,409 8.8 -12.6°
Reaches altitude 10° 01:48:46 10° 42° (NE) 2,477 7.7 -12.4°
Maximum altitude 01:54:02 55° 326° (NW) 1,015 4.2 -11.9°
Enters shadow 01:59:06 11° 251° (WSW) 2,403 5.5 -11.4°
